x

Central Caribbean - 210 Nm Sse Of Kingston, Jamaica (42058) Wave Buoy

7:50 - Thu 24th Apr 2014 All times are EST. -5 hours from GMT.

  • Sig Wave height 5.6ft
  • Swell Direction
  • Peak Period 8s
  • Average Period 5s
  • Wind
    20mph, 22mph gusts
  • Sea Temp 81°f
  • Aire Temp 81°f
  • Sea Pressure 1012.1mb
  • Central Caribbean - 210 Nm Sse Of Kingston, Jamaica
  • Central Caribbean - 210 Nm Sse Of Kingston, Jamaica

More Historic Weather Station data

Upgrade to MSW Pro to gain access to the past 30 days of data for over 8000 Wavebouys and Weather Stations around the globe.

Join Pro

Comparision Forecast

View Surf forecast
   
jue 04/24 7:50 5.5ft 8s 5s 20 22 mph 1012.1mb 81f 81f
6:50 5ft 7s 5s 18 22 mph 1011.5mb 81f 81f
5:50 5.5ft 8s 5s 18 22 mph 1010.8mb 81f 81f
4:50 5.5ft 7s 5s 18 22 mph 1010.5mb 81f 81f
3:50 5ft 7s 5s 20 22 mph 1010.5mb 81f 82f
2:50 5.5ft 6s 5s 20 22 mph 1011mb 81f 82f
1:50 5ft 8s 5s 18 22 mph 1011.4mb 81f 82f
12:50 5.5ft 7s 5s 18 22 mph 1012.2mb 81f 82f
11:50 5.5ft 6s 5s 18 22 mph 1013mb 81f 82f
10:50 6ft 7s 5s 20 25 mph 1013.4mb 81f 82f
9:50 5.5ft 7s 5s 18 22 mph 1013.6mb 81f 82f
8:50 5ft 8s 5s 18 22 mph 1013.3mb 81f 81f
7:50 5ft 8s 5s 20 25 mph 1012.6mb 81f 81f
6:50 5ft 8s 5s 20 22 mph 1012mb 81f 81f
5:50 4.5ft 8s 5s 18 22 mph 1011.3mb 81f 81f
4:50 4.5ft 8s 5s 20 22 mph 1010.7mb 81f 81f
3:50 5ft 8s 5s 18 20 mph 1010.4mb 81f 81f
2:50 5ft 7s 5s 18 22 mph 1010.5mb 81f 81f
1:50 4.5ft 8s 5s 18 20 mph 1011.2mb 81f 81f
12:50 4.5ft 8s 5s 18 20 mph 1011.5mb 81f 81f
mié 04/23 11:50 4.5ft 8s 5s 18 22 mph 1012.2mb 81f 81f
10:50 4.5ft 7s 5s 18 22 mph 1012.9mb 81f 81f
9:50 4.5ft 7s 5s 20 22 mph 1012.8mb 81f 81f
8:50 4.5ft 8s 5s 18 20 mph 1012.3mb 81f 82f
7:50 4.5ft 7s 5s 18 22 mph 1011.6mb 81f 81f
6:50 4.5ft 8s 5s 18 20 mph 1011mb 81f 81f
5:50 4.5ft 7s 5s 18 20 mph 1010mb 82f 81f
4:50 4.5ft 8s 5s 16 20 mph 1009.2mb 82f 81f
3:50 4ft 7s 5s 18 20 mph 1009.2mb 82f 81f
2:50 4ft 8s 5s 18 20 mph 1009.8mb 82f 81f
1:50 4.5ft 7s 5s 18 20 mph 1010.6mb 82f 81f
12:50 4ft 6s 5s 18 20 mph 1011.6mb 82f 81f
11:50 4ft 7s 5s 18 20 mph 1012.3mb 82f 82f
10:50 4.5ft 8s 5s 18 22 mph 1012.7mb 81f 81f
9:50 4ft 7s 5s 18 20 mph 1012.6mb 81f 81f
8:50 3.5ft 7s 5s 16 20 mph 1012.6mb 81f 81f
7:50 4ft 7s 5s 18 20 mph 1011.9mb 81f 81f
6:50 3.5ft 8s 5s 18 20 mph 1011.3mb 81f 81f
5:50 3.5ft 7s 5s 16 18 mph 1011mb 81f 81f
4:50 3.5ft 7s 5s 16 18 mph 1010.4mb 81f 81f
3:50 4ft 5s 5s 16 18 mph 1010.3mb 81f 81f
2:50 4ft 5s 5s 16 20 mph 1009.9mb 81f 80f
1:50 4.5ft 7s 5s 18 20 mph 1010.3mb 81f 81f
12:50 4.5ft 8s 5s 18 20 mph 1010.6mb 81f 81f
mar 04/22 11:50 4.5ft 8s 5s 18 20 mph 1011.4mb 81f 81f
10:50 4.5ft 8s 5s 16 20 mph 1011.8mb 81f 81f
9:50 4.5ft 7s 5s 16 20 mph 1011.6mb 81f 81f
8:50 4.5ft 8s 5s 16 20 mph 1011.1mb 81f 81f
7:50 4.5ft 7s 5s 16 18 mph 1010.5mb 82f 81f
6:50 4.5ft 7s 5s 16 18 mph 1009.8mb 82f 81f
5:50 4.5ft 7s 5s 16 18 mph 1008.7mb 82f 81f
4:50 4.5ft 8s 5s 16 18 mph 1008.6mb 82f 81f
3:50 4.5ft 8s 5s 13 16 mph 1009.2mb 82f 81f
2:50 4.5ft 8s 5s 13 16 mph 1009.7mb 82f 81f
1:50 4.5ft 8s 5s 16 18 mph 1010mb 82f 81f
12:50 5ft 8s 6s 16 18 mph 1010.7mb 82f 81f
11:50 5ft 8s 6s 16 18 mph 1011.6mb 82f 81f
10:50 4.5ft 8s 5s 16 18 mph 1011.8mb 81f 81f
9:50 5ft 8s 6s 13 18 mph 1011.9mb 81f 81f
8:50 5ft 8s 6s 16 18 mph 1011.6mb 81f 81f
7:50 5ft 8s 6s 16 18 mph 1011.4mb 81f 81f
6:50 5ft 8s 6s 16 18 mph 1011.1mb 81f 81f
5:50 5ft 8s 6s 13 18 mph 1010.5mb 81f 80f
4:50 5ft 9s 6s 16 18 mph 1010.2mb 81f 80f
3:50 5ft 9s 5s 16 20 mph 1010.1mb 81f 80f
2:50 5.5ft 8s 6s 16 18 mph 1010.2mb 81f 80f
1:50 6ft 8s 6s 16 18 mph 1010.7mb 81f 80f
12:50 5ft 8s 5s 16 20 mph 1011.2mb 81f 81f
lun 04/21 11:50 5.5ft 8s 6s 16 20 mph 1011.8mb 81f 81f
10:50 6ft 8s 6s 18 20 mph 1011.9mb 81f 81f
9:50 5.5ft 8s 5s 18 20 mph 1011.8mb 81f 81f
8:50 6ft 8s 6s 18 20 mph 1011mb 81f 81f
7:50 5.5ft 8s 6s 18 20 mph 1010.3mb 81f 81f
6:50 6ft 9s 6s 18 20 mph 1010.5mb 81f 81f
5:50 6ft 8s 6s 18 20 mph 1010.1mb 81f 81f
4:50 6ft 8s 6s 18 22 mph 1009.8mb 82f 81f
3:50 6ft 8s 6s 16 18 mph 1010.1mb 82f 81f
2:50 6ft 8s 6s 16 18 mph 1010.8mb 82f 81f
1:50 6ft 8s 6s 16 20 mph 1011.2mb 82f 81f
12:50 7ft 8s 6s 16 18 mph 1011.8mb 82f 81f
11:50 6.5ft 8s 6s 18 20 mph 1012.1mb 81f 81f
10:50 6.5ft 8s 6s 18 20 mph 1012.6mb 81f 81f
9:50 7ft 7s 6s 18 22 mph 1012.7mb 81f 81f
8:50 7ft 8s 6s 18 22 mph 1012.8mb 81f 81f
7:50 6.5ft 8s 6s 20 22 mph 1012.7mb 81f 81f
6:50 6ft 8s 5s 22 25 mph 1012.1mb 81f 81f
5:50 7.5ft 8s 6s 18 22 mph 1011.9mb 81f 81f
4:50 7ft 8s 6s 20 25 mph 1011.7mb 81f 81f
3:50 6.5ft 8s 5s 20 22 mph 1011.2mb 81f 81f
2:50 7ft 8s 6s 22 27 mph 1011.2mb 81f 81f
1:50 7ft 8s 6s 20 25 mph 1011.6mb 81f 81f